Back to catalog

STARLINK-6028

AliveCommunicationsVLEO
NORAD 56818·PAYLOAD·🇺🇸 United States

Launched May 31, 2023 from Vandenberg Space Force Base

Loading…

Next Passes (next 24 hours)

TLE

FreshSource: CelesTrak SupGP

Epoch: Sep 14, 2026, 21:17 UTC

1 56818C 23078BD  26257.88729167  .00030868  00000+0  25865-2 0  2577
2 56818  70.0013 227.2405 0003703 268.5469 125.4497 14.98318775    12

Track STARLINK-6028 in real time with AllMySat

Download on the App Store